Hourly Data Report for September 18, 2019

All times are specified in Local Standard Time (LST). Add 1 hour to adjust for Daylight Saving Time where and when it is observed.

EUREKA CLIMATE
NUNAVUT
Current Station Operator: ECCC - MSC

79°59'21.000" N
85°56'02.000" W
10.00 m
2401199
71613
NEK

Download Data

Hourly Data (September 2019)
Hourly Data Report for September 18, 2019
TIME Temp Definition
°C
Dew Point Definition
°C
Rel Hum Definition
%
Wind Dir Definition
10's deg

Wind Spd Definition
km/h
Visibility Definition
km
Stn Press Definition
kPa
Hmdx Definition


Wind Chill Definition


Weather Definition


00:00 -10.3 -11.0 95 2 5   102.41   -13 LegendNANA
01:00 -10.0 -10.6 96 2 4   102.41   -12 LegendNANA
02:00 -9.7 -10.2 96 2 4   102.39   -12 LegendNANA
03:00 -8.8 -9.3 96 2 3   102.39   -10 LegendNANA
04:00 -8.9 -9.4 96 2 3   102.35   -11 LegendNANA
05:00 -8.6 -9.0 96 2 3   102.34   -10 LegendNANA
06:00 -8.8 -9.3 96 2 7   102.32   -13 LegendNANA
07:00 -9.0 -9.5 96 3 5   102.30   -12 LegendNANA
08:00 -9.1 -9.6 96 4 4   102.25   -11 LegendNANA
09:00 -9.1 -9.6 96 2 5   102.22   -12 LegendNANA
10:00 -8.5 -9.0 97 33 2   102.19   -10 LegendNANA
11:00 -6.9 -7.1 98 29 2   102.15   -8 LegendNANA
12:00 -5.6 -5.8 99 27 3   102.11   -7 LegendNANA
13:00 -5.2 -5.3 99 27 2   102.07   -6 LegendNANA
14:00 -4.9 -5.1 99 29 5   102.04   -7 LegendNANA
15:00 -4.9 -5.1 99 30 6   102.00   -8 LegendNANA
16:00 -4.5 -4.6 99 30 7   101.96   -8 LegendNANA
17:00 -4.8 -4.9 99 32 8   101.93   -8 LegendNANA
18:00 -4.6 -4.8 99 30 11   101.90   -9 LegendNANA
19:00 -5.0 -5.2 98 31 10   101.87   -9 LegendNANA
20:00 -4.7 -4.9 98 30 12   101.83   -9 LegendNANA
21:00 -4.7 -4.9 98 29 11   101.80   -9 LegendNANA
22:00 -4.7 -4.9 99 32 8   101.78   -8 LegendNANA
23:00 -4.4 -4.8 97 28 4   101.73   -6 LegendNANA

Notes on Data Quality.

Legend

  • E = Estimated
  • M = Missing
  • NA = Not Available
Date modified: